timestamp,gas_concentrations,,corrected_fluxes_and_quality_flags,,,,,,,,,,storage_terms,,,turbulence,,,footprint,,
ISOdate,CO2_1_1_1,H2O_1_1_1,Tau_1_1_1,QcTau_1_1_1,H_1_1_1,QcH_1_1_1,LE_1_1_1, QcLE_1_1_1,Fc_1_1_1, QcFc_1_1_1,E_1_1_1, QcE_1_1_1,Sa_1_1_1,Sw_1_1_1,Sc_1_1_1,ustar_1_1_1,MO_length_1_1_1,ZL_1_1_1,Fetchmax_1_1_1,Fetch70_1_1_1,Fetch90_1_1_1
yyyymmddHHMM,[µmol+1mol_a-1],[mmol+1mol_a-1],[kg+1m-1s-2],[#],[W+1m-2],[#],[W+1m-2],[#],[µmol+1s-1m-2],[#],[mmol+1s-1m-2],[#],[W+1m-2],[W+1m-2],[µmol+1s-1m-2],[m+1s-1],[m],[#],[m],[m],[m]
201301150030,-9999.,1.3568413948998592,0.15479635761718955,0,-31.475500605303072,0,-0.28311379131487496,0,-9999.,-9999.,-6.18571289698343144E-003,0,-9999.,-9999.,-9999.,0.34346995892324617,109.36084584247496,0.19751127410913566,105.28447235346658,192.49359422234807,288.39048107050991
201301150100,-9999.,1.3606088304608166,2.99065298234613315E-002,0,-9.4479362027036462,0,-8.59075471149618464E-002,0,-9999.,-9999.,-1.87726144552264164E-003,0,4.0933006576432467,0.15180405813034434,-9999.,0.15104043732938405,30.975390371543682,0.69732777346507258,335.21555990517425,3394.0000000000000,-9999.
201301150130,-9999.,1.3466616353630141,9.00400069176733736E-002,0,-13.327452815584623,0,-0.11856629654685885,1,-9999.,-9999.,-2.59038342866113732E-003,1,-5.7385011720858428,-0.56254102297114827,-9999.,0.26197344539964418,114.56950900829327,0.18853183702163248,99.599400297121591,182.09946934261362,272.81818794312869
201301150200,-9999.,1.3705757817778024,0.17157002834822260,0,-20.617284147075001,0,-0.16869107608106312,2,-9999.,-9999.,-3.68638149049577320E-003,2,6.6646459252136498,0.96343257381400238,-9999.,0.36179281981693923,195.08631190025727,0.11072022321608878,100.84296411984414,184.37310062488945,276.22450191384246
201301150230,-9999.,1.3950876112989774,0.30470779017012156,0,-13.005282195626368,0,-6.36264493157005923E-002,0,-9999.,-9999.,-1.39066438636701521E-003,0,4.8326431366581843,0.98661915449328574,-9999.,0.48232647324487299,732.80110466041458,2.94759380992057861E-002,116.33070603754753,212.68963241238703,318.64782647918912
201301150300,-9999.,1.4330435629156757,0.18598903443870043,1,-9.4624255976494851,0,-2.11614917110634557E-002,0,-9999.,-9999.,-4.62690455680010682E-004,0,10.065981778585970,1.5245047309699182,-9999.,0.37716272224571218,481.50222547571298,4.48596057446249696E-002,112.66754998057451,205.99221483653798,308.61387452129611
201301150330,-9999.,1.4629760640600871,0.21655258650183853,0,-15.533575075187334,0,-0.10147607979705575,1,-9999.,-9999.,-2.21943657386038931E-003,1,8.4843168804425471,1.1999687813954085,-9999.,0.40729850624993896,369.31250876373178,5.84870522590899625E-002,120.85380957309769,220.95930824525635,331.03730780906437
201301150400,-9999.,1.4595918866241719,0.27087145888707009,0,0.97021332292392604,2,0.11151200007091708,0,-9999.,-9999.,2.43892681950880728E-003,0,-0.11906536311936178,-0.13558694569594437,-9999.,0.45566378712971106,-8275.5885144430722,-2.61008627510929750E-003,114.54328239855633,209.42165193078017,313.75179621372996
201301150430,-9999.,1.4434046862825576,0.50953698211742060,0,7.9434111879222513,2,0.19383240562749135,0,-9999.,-9999.,4.24041628586686609E-003,0,6.5887465990812277,-0.64731518950307942,-9999.,0.62547116556387450,-2613.0466166230194,-8.26621303370195584E-003,116.35210942384514,212.72876462879901,318.70645367019773
201301150500,-9999.,1.4619414609149424,0.60172207678322387,0,-8.1116454721885454,0,5.68043519153160550E-002,0,-9999.,-9999.,1.24303870243474982E-003,0,7.5772114651489177,0.73975216591552440,-9999.,0.68030624475798951,3291.1401655473169,6.56307507839245120E-003,113.17787115794253,206.92524470735839,310.01172328808804
201301150530,-9999.,1.4752602549715905,0.67768910036324326,0,-10.210049542870591,0,5.95046463886515636E-002,0,-9999.,-9999.,1.30269037221116056E-003,0,11.703014610860459,0.53005090390071841,-9999.,0.72281788078129394,3134.9737907096232,6.89000975510889024E-003,126.34646315021558,231.00163077623733,346.08253691123150
201301150600,-9999.,1.5755147662967075,0.49520360131019941,0,-39.064571799183952,0,-0.40747997733129221,0,-9999.,-9999.,-8.92374739355162976E-003,0,9.3952372170186820,3.9815236732354715,-9999.,0.61843218697557267,513.07438942315207,4.20991584169399177E-002,108.83324633942368,198.98188489208957,298.11112281514210
201301150630,-9999.,1.7017124024646928,0.43447805678970480,0,-33.517964466446983,0,-0.35582791452981927,2,-9999.,-9999.,-7.79457770717405067E-003,2,6.9477697974008334,5.0047399699200676,-9999.,0.57962382617224528,492.29640527717191,4.38760059355680354E-002,108.47765491785441,198.33175036339378,297.13710282113362
201301150700,-9999.,1.7996804527364876,0.62834837395189846,0,-55.215438112077166,0,-0.68444140109605378,0,-9999.,-9999.,-1.49959145951026815E-002,0,5.2314131501705345,3.8809028033111082,-9999.,0.69738009249988153,520.45637105660046,4.15020378291247119E-002,114.78607228603602,209.86554927895608,314.41683532998491
201301150730,-9999.,1.8327824063663138,0.48296591880912848,0,-39.235455467271592,0,-0.51393266079484634,0,-9999.,-9999.,-1.12602294350345050E-002,0,0.26954132436429568,1.3111225706259328,-9999.,0.61144501669073914,493.63504910392845,4.37570226004199356E-002,107.58062762248213,196.69169837527099,294.68000608632462
201301150800,-9999.,1.8563998525235650,0.58596311950765456,0,-44.605286391722508,0,-0.62063239075950527,0,-9999.,-9999.,-1.35994172314505488E-002,0,2.7870751096704414,0.93502063920664291,-9999.,0.67361931523996033,580.61958576383017,3.72016386109060848E-002,116.22010410540406,212.48741680575174,318.34487065194139
201301150830,-9999.,1.9015150495672126,0.58264330404127873,0,-35.757941738247879,0,-0.51759364934775443,1,-9999.,-9999.,-1.13461107828976508E-002,1,10.685129919012248,1.7825772747045379,-9999.,0.67224835074202116,719.89327384928458,3.00044475822149916E-002,104.57520355206276,191.19682464369993,286.44768393933907
201301150900,-9999.,1.9531915872070411,0.40148597438338018,0,-9.8141323966128269,2,-0.26837485224587199,2,-9999.,-9999.,-5.88584832949995678E-003,2,12.944105100281552,2.0364640421367612,-9999.,0.55864292300501150,1505.0610977759088,1.43515768442352386E-002,93.876027777932279,171.63531900149360,257.14098391428223
201301150930,-9999.,2.0279981113940866,0.95459328512176123,0,42.502298855143074,0,0.61588270109705012,0,-9999.,-9999.,1.35150417775397949E-002,0,15.552999771389096,2.9382758246951162,-9999.,0.86258818235007595,-1279.0980830319620,-1.68868988911308228E-002,113.81172956898791,208.08414004152090,311.74795967704256
201301151000,-9999.,2.1010106168259632,0.81621413615265770,0,12.350192638022323,2,0.17814725691669350,2,-9999.,-9999.,3.91275856789104377E-003,2,23.608449754162987,2.8539356304404380,-9999.,0.79921420006524546,-3500.4179506239725,-6.17069170158656647E-003,110.20768197970429,201.49479159628692,301.87591496958487
201301151030,-9999.,2.1409603224495424,0.85965443123409024,0,55.262705523231915,1,1.0127464901231376,0,-9999.,-9999.,2.22714817858543114E-002,0,33.207388160911854,1.5509702393090756,-9999.,0.82249386032239713,-852.37628015685641,-2.53409210261284074E-002,115.86842684196706,211.84443860647849,317.38157214346182
201301151100,-9999.,2.0668529026556266,0.75307973640989812,0,100.61786661520613,0,1.4043494587682075,0,-9999.,-9999.,3.08943447595777035E-002,0,9.4568717354454890,-2.8713473717993732,-9999.,0.77044263157739346,-384.72353118866755,-5.61442133088745493E-002,97.212452508948076,177.73536750788114,266.27996815122526
201301151130,-9999.,2.0307220434205693,0.86194446686561843,0,77.489433435172330,1,1.3383574323906553,1,-9999.,-9999.,2.94534400124247045E-002,1,9.7183526388896624,-1.3965554619402019,-9999.,0.82508466482665288,-613.31668331085621,-3.52183473689271220E-002,103.95158635699056,190.05665351860472,284.73949982756494
201301151200,-9999.,1.8797845280529508,0.89924686235215934,0,87.783853904255679,0,1.3847368310908863,0,-9999.,-9999.,3.05043655919294346E-002,0,26.013528042301996,-5.8017877235402713,-9999.,0.84465263950901659,-580.58354852802427,-3.72039477432030419E-002,102.70053393974406,187.76933069717441,281.31267343627269
201301151230,-9999.,1.7899536404174623,0.76990105376294493,0,127.80363434107302,0,1.6854805221768709,1,-9999.,-9999.,3.71608778553020255E-002,1,22.082757384348913,-3.4369412873520968,-9999.,0.78302229023411984,-317.60890626405575,-6.80081684549552756E-002,97.980710734468715,179.13998856752670,268.38434645404323
201301151300,-9999.,1.8239195310156155,0.88987596645376243,0,104.07846392085281,0,1.3757633061126184,0,-9999.,-9999.,3.03504511935501070E-002,0,15.522768949314797,1.2952094029814691,-9999.,0.84298397014933857,-486.52305003707352,-4.43966632174037021E-002,102.45918962067692,187.32807630909701,280.65159395585567
201301151330,-9999.,1.7441999111520381,1.0206077455751317,0,132.89282049617265,0,1.6068660898078573,0,-9999.,-9999.,3.54625532760906789E-002,0,10.088032919941334,-3.0324640381789738,-9999.,0.90370416846180979,-469.26554486727383,-4.60293755556021172E-002,105.74083344668927,193.32796784966467,289.64052480701179
201301151400,-9999.,1.7896030544781871,1.0965147709449408,0,109.49218103136967,0,1.6138683114627250,1,-9999.,-9999.,3.56342393876195457E-002,1,12.456065553144908,1.7224166460157568,-9999.,0.93776141845889704,-636.26943451396380,-3.39478824980802354E-002,107.66375081991953,196.84367409097064,294.90769340204400
201301151430,-9999.,1.8588102265934907,1.0222720700282106,0,96.572463760857872,0,1.3305577196106213,0,-9999.,-9999.,2.93832346679155261E-002,0,3.9568380105206153,2.6231836683310847,-9999.,0.90579132666764706,-650.05730210870718,-3.32278399610806893E-002,113.85318694363409,208.15993734452556,311.86151784902057
201301151500,-9999.,1.8441396437153275,0.87305490008285203,0,51.895787285802612,0,0.82417367919898366,0,-9999.,-9999.,1.82046295804913806E-002,0,5.7787362041742831,-0.55534287787339431,-9999.,0.83752494403868227,-956.14411482401249,-2.25907367572676931E-002,112.12013871632173,204.99137245761574,307.11443026031077
201301151530,-9999.,1.8922402960491507,0.84176977207764725,0,19.301881193884817,0,0.31851622575447880,1,-9999.,-9999.,7.03605045428835289E-003,1,2.0357925639375472,1.8194235872890634,-9999.,0.82267053186873562,-2435.7290293337996,-8.86798151184651877E-003,106.77601057359469,195.22060179045897,292.47603533338065
201301151600,-9999.,1.9778174268713307,0.53062689257126650,0,-9.0082106429128004,0,8.14926956053953211E-002,0,-9999.,-9999.,1.80020999873267825E-003,0,0.42165214570591236,3.2360765491915386,-9999.,0.65326333266804781,2612.8899542458867,8.26670865525755937E-003,98.785875094772180,180.61208581216326,270.58981637774843
201301151630,-9999.,2.0322253771584715,0.64037615770571166,0,-34.889641619661170,0,-0.26820222940970162,0,-9999.,-9999.,-5.92357429632917737E-003,0,-4.9322177631666158,2.0586921762171837,-9999.,0.71750217891726886,893.65165551344433,2.41704917869701684E-002,113.13135154428139,206.84019201691601,309.88429885917594
201301151700,-9999.,2.0657653556064126,0.46415645941337830,0,-52.876751499906767,0,-0.48367392854943192,0,-9999.,-9999.,-1.06783603954993568E-002,0,-10.088728192323209,1.2712681510602288,-9999.,0.61045367646077242,363.09509450503856,5.94885481155963819E-002,104.87775033314426,191.74997665186368,287.27640644506153
201301151730,-9999.,2.0697448369262146,0.29765567114437674,0,-52.461509565698044,0,-0.49730895948616549,0,-9999.,-9999.,-1.09746085389535956E-002,0,-11.275458059547830,0.15112903857961574,-9999.,0.48848244639573091,187.48434901950534,0.11520961676514554,105.15839392968772,192.26308265302944,288.04513273496309
201301151800,-9999.,2.0908863294553095,0.37150082542717916,0,-64.584155340217833,0,-0.64132131031534700,0,-9999.,-9999.,-1.41469338426709092E-002,0,-10.516981736534396,0.80431754128761546,-9999.,0.54535128158067914,211.87793073732851,0.10194549250520185,102.44141177659884,187.29557274016972,280.60289768667684
201301151830,-9999.,2.1410174134971451,0.53810984927760286,0,-60.515928370418258,0,-0.62656715215200232,0,-9999.,-9999.,-1.38175486999127864E-002,0,-7.3707521264655034,1.9094075674771240,-9999.,0.65606647884613112,393.61957388708697,5.48753198086539759E-002,98.886857818344879,180.79671443764195,270.86642370245602
201301151900,-9999.,2.1568294987686660,0.51791685632369544,0,-55.870308457016534,0,-0.60073526085926898,0,-9999.,-9999.,-1.32442454878229973E-002,0,-7.1402574724897576,0.60292397996042546,-9999.,0.64337237389254609,402.00171851478950,5.37311135877777193E-002,100.69238280000928,184.09778994678260,275.81203634986440
201301151930,-9999.,2.2369289178056291,0.69176692531496176,0,-64.695098212735772,0,-0.80671304392872034,1,-9999.,-9999.,-1.77829365861404236E-002,1,-3.5750773501747077,3.0553653354580481,-9999.,0.74347869477825124,535.62696084156414,4.03265734907417711E-002,104.19464834998210,190.50104836243989,285.40528428297307
201301152000,-9999.,2.3432675001551044,0.64903341497898948,0,-73.223342350101575,0,-1.0587108993200858,2,-9999.,-9999.,-2.33372780482998081E-002,2,-0.69346770898096644,4.0543860767203483,-9999.,0.72033822779593359,430.24059007653682,5.02044681468977877E-002,104.46916049743140,191.00294411913617,286.15721558388537
201301152030,-9999.,2.4499169083690062,0.78249024394857325,0,-55.701270697223407,0,-0.77187341925880149,0,-9999.,-9999.,-1.70179812047045742E-002,0,5.3276989299271884,4.0592892584921767,-9999.,0.79154924591883591,750.09450250997338,2.87963715608125052E-002,108.79104026728747,198.90471873128826,297.99551384474620
201301152100,-9999.,2.5942210313134648,0.94148145194834665,0,-73.816503913711742,0,-1.1890960723398507,2,-9999.,-9999.,-2.62236912736871809E-002,2,6.8544724866400690,5.4806097895052917,-9999.,0.86909941837992644,748.77345680986264,2.88471764103744484E-002,110.39273797285323,201.83313297234503,302.38281200479088
201301152130,-9999.,2.7042838872860946,0.87160740367103395,0,-61.104199258371885,0,-0.95367557666166436,2,-9999.,-9999.,-2.10369649906017517E-002,2,6.2831087760274666,4.1721884081300304,-9999.,0.83693900519804321,807.42028552095724,2.67518668868511542E-002,104.35797478690925,190.79966117943809,285.85266069721604
201301152200,-9999.,2.7659809399753073,0.90322792456620027,0,-60.086885649671437,0,-0.94729685335430791,1,-9999.,-9999.,-2.08972618601838758E-002,1,1.2411017577095673,2.3369239736425347,-9999.,0.85231111706267593,866.83778837720092,2.49181568796593006E-002,101.42973148655852,185.44589851109660,277.83174863675077
201301152230,-9999.,2.7979893987136881,1.2756002461533507,0,-73.082604733133977,0,-1.1235415048225716,0,-9999.,-9999.,-2.47823505643881142E-002,0,-2.9680495494420271,1.2121804326594472,-9999.,1.0130320605714520,1196.0443711268308,1.80595306674533884E-002,113.03487012911359,206.66379321882016,309.62002131555874
201301152300,-9999.,2.8146665000459947,1.3049578404807367,0,-60.820887771478652,0,-0.92157879817836541,0,-9999.,-9999.,-2.03277220767585677E-002,0,0.17015488689480687,0.63103596310201593,-9999.,1.0250582710026790,1488.1015391625042,1.45151385382991868E-002,110.03281772149275,201.17508396218150,301.39693467533635
201301152330,-9999.,2.8137721557667965,1.4058286417201862,0,-61.861966168144612,0,-0.93031657896605069,0,-9999.,-9999.,-2.05216220036469055E-002,0,1.4655738942793561,-3.38156246767202379E-002,-9999.,1.0643011287156792,1637.0744048599040,1.31942689567909194E-002,111.37281036662361,203.62501788621526,305.06738212995106
201301160000,-9999.,2.8108895549659980,1.0508763220878126,0,-67.726000323723468,0,-1.0187832942991151,0,-9999.,-9999.,-2.24729602446398016E-002,0,-0.14564284766867203,-0.10891492012499566,-9999.,0.92051321240710682,966.94786505014656,2.23383294805452742E-002,107.93311159390220,197.33615149402362,295.64551429294983
